This is the latest recevied weather packets stored in our database for station/object DC4THF-13. If no packets are shown the sender has not sent any weather packets the latest 10 day(s).
| Time | Temp. | Humidity | Pressure | Rain* | Wind** | Luminosity | Snow |
|---|---|---|---|---|---|---|---|
| 1777344755 | 3.89° C | 56% | 1020.1 hPa | 0 mm | - | - | - |
| 1777344151 | 4.44° C | 55% | 1020 hPa | 0 mm | - | - | - |
| 1777343548 | 4.44° C | 56% | 1019.9 hPa | 0 mm | - | - | - |
| 1777342945 | 4.44° C | 56% | 1020 hPa | 0 mm | - | - | - |
| 1777342341 | 4.44° C | 55% | 1019.9 hPa | 0 mm | - | - | - |
| 1777341737 | 4.44° C | 55% | 1019.7 hPa | 0 mm | - | - | - |
| 1777341193 | 4.44° C | 56% | 1019.7 hPa | 0 mm | - | - | - |
| 1777340589 | 4.44° C | 56% | 1019.7 hPa | 0 mm | - | - | - |
| 1777339985 | 4.44° C | 56% | 1019.6 hPa | 0 mm | - | - | - |
| 1777339380 | 4.44° C | 57% | 1019.4 hPa | 0 mm | - | - | - |
| 1777338777 | 4.44° C | 56% | 1019.4 hPa | 0 mm | - | - | - |
| 1777338173 | 5° C | 56% | 1019.3 hPa | 0 mm | - | - | - |
| 1777337569 | 5° C | 55% | 1019.3 hPa | 0 mm | - | - | - |
| 1777336966 | 5.56° C | 55% | 1019.1 hPa | 0 mm | - | - | - |
| 1777336362 | 5.56° C | 55% | 1019.1 hPa | 0 mm | - | - | - |
| 1777335758 | 5.56° C | 54% | 1019.1 hPa | 0 mm | - | - | - |
| 1777335154 | 6.11° C | 53% | 1019 hPa | 0 mm | - | - | - |
| 1777334550 | 6.11° C | 53% | 1019 hPa | 0 mm | - | - | - |
| 1777333947 | 6.67° C | 53% | 1019 hPa | 0 mm | - | - | - |
| 1777333344 | 6.67° C | 52% | 1018.9 hPa | 0 mm | - | - | - |
| 1777332740 | 7.22° C | 52% | 1018.8 hPa | 0 mm | - | - | - |
| 1777332137 | 7.22° C | 52% | 1018.7 hPa | 0 mm | - | - | - |
| 1777331594 | 7.22° C | 48% | 1018.6 hPa | 0 mm | - | - | - |
| 1777330991 | 7.78° C | 47% | 1018.6 hPa | 0 mm | - | - | - |
| 1777330388 | 7.78° C | 47% | 1018.6 hPa | 0 mm | - | - | - |
* Rain latest hour (hover to see other rain measurements)
** Current wind speed in m/s (hover to see current wind gust speed)